Hauptseite
METAR-TAF:

METAR-TAF

Flughäfen :

Flughafen Epinal-Mirecourt

Épinal, Frankreich

Breite: 48-19-31N, Länge: 6-04-00E, Höhe: 330 m

Beobachtung

Neuester Wetterbericht von vor 18 Minuten, um 12:30 UTC
Wind 7 kt aus Nordwest, variierte zwischen West und Nord
Temperatur 26°C
Luftfeuchtigkeit 51%
Luftdruck 1018 hPa
Sichtweite 10 km oder mehr
Leicht bewölkt in der Höhe von 4200 ft
Durchbrochene Bewölkung in der Höhe von 24000 ft

METAR: LFSG 171230Z AUTO 31007KT 270V360 9999 FEW042 BKN240 26/15 Q1018

Zeit: 14:48 (12:48 UTC)


TAF: fehlend

Wetterbeobachtungen und Prognosen von mehr als 4000 Flughäfen (METAR und TAF Bericht).

Die verfügbaren Stationen werden durch gelbe und rote Markierungen auf der Karte dargestellt.

Führen Sie die Maus auf sie, um den Namen der Station zu sehen.

Darauf klicken, um die Beobachtung von Wetterbeobachtungen und Prognosen zu sehen.

Um die Karte zu ändern : klicken Sie auf den grünen Tasten mit einem schwarzen Kreuz Zum Vergrößern, auf den grünen Button mit einem Gedankenstrich zu verkleinern, oder auf die grünen Pfeile für benachbarte Karten.


METAR-TAF: